Location: Dehesa de la Cepeda
(40.6574°N, 4.3013°W)
Time: 02:10:38
(UTC+00:00)

Courier 1B - Pass Details

Date: 02 August 2021
Orbit: 963 x 1209 km, 28.3° (Epoch: 17 September)

Event Time Altitude Azimuth Distance (km) Brightness Sun altitude
Rises 23:24:20 0° 260° (W) 4,058 10.8 -30.2°
Enters shadow 23:28:01 - 243° (WSW) 3,108 10.0 -30.4°
Reaches altitude 10° 23:28:15 10° 242° (WSW) 3,058 - -30.4°
Maximum altitude 23:32:58 18° 203° (SSW) 2,462 - -30.7°
Drops below altitude 10° 23:37:33 10° 163° (SSE) 2,942 - -30.9°
Sets 23:41:14 0° 145° (SE) 3,846 - -31.0°
